Year,Month,Day,Hour,Minute,Value (Times are PST for temperature in C)
2016,04,10,00,00,10.70
2016,04,10,00,01,10.70
2016,04,10,00,02,10.70
2016,04,10,00,03,10.70
2016,04,10,00,04,10.70
2016,04,10,00,05,10.70
2016,04,10,00,06,10.70
2016,04,10,00,07,10.70
2016,04,10,00,08,10.70
2016,04,10,00,09,10.70
2016,04,10,00,10,10.70
2016,04,10,00,11,10.70
2016,04,10,00,12,10.70
2016,04,10,00,13,10.70
2016,04,10,00,14,10.70
2016,04,10,00,15,10.80
2016,04,10,00,16,10.80
2016,04,10,00,17,10.80
2016,04,10,00,18,10.80
2016,04,10,00,19,10.80
2016,04,10,00,20,10.90
2016,04,10,00,21,10.90
2016,04,10,00,22,10.90
2016,04,10,00,23,11.00
2016,04,10,00,24,11.00
2016,04,10,00,25,11.00
2016,04,10,00,26,11.00
2016,04,10,00,27,11.00
2016,04,10,00,28,11.10
2016,04,10,00,29,11.00
2016,04,10,00,30,11.10
2016,04,10,00,31,11.10
2016,04,10,00,32,11.10
2016,04,10,00,33,11.10
2016,04,10,00,34,11.10
2016,04,10,00,35,11.10
2016,04,10,00,36,11.00
2016,04,10,00,37,11.00
2016,04,10,00,38,11.00
2016,04,10,00,39,11.00
2016,04,10,00,40,11.00
2016,04,10,00,41,11.00
2016,04,10,00,42,11.00
2016,04,10,00,43,11.00
2016,04,10,00,44,10.90
2016,04,10,00,45,10.90
2016,04,10,00,46,10.90
2016,04,10,00,47,10.90
2016,04,10,00,48,10.90
2016,04,10,00,49,10.90
2016,04,10,00,50,10.90
2016,04,10,00,51,10.90
2016,04,10,00,52,11.00
2016,04,10,00,53,11.00
2016,04,10,00,54,11.00
2016,04,10,00,55,11.00
2016,04,10,00,56,11.00
2016,04,10,00,57,11.00
2016,04,10,00,58,11.00
2016,04,10,00,59,11.00
2016,04,10,01,00,11.00
2016,04,10,01,01,10.90
2016,04,10,01,02,10.90
2016,04,10,01,03,10.90
2016,04,10,01,04,10.90
2016,04,10,01,05,10.80
2016,04,10,01,06,10.80
2016,04,10,01,07,10.80
2016,04,10,01,08,10.70
2016,04,10,01,09,10.70
2016,04,10,01,10,10.70
2016,04,10,01,11,10.60
2016,04,10,01,12,10.60
2016,04,10,01,13,10.60
2016,04,10,01,14,10.50
2016,04,10,01,15,10.50
2016,04,10,01,16,10.40
2016,04,10,01,17,10.40
2016,04,10,01,18,10.40
2016,04,10,01,19,10.40
2016,04,10,01,20,10.40
2016,04,10,01,21,10.30
2016,04,10,01,22,10.30
2016,04,10,01,23,10.30
2016,04,10,01,24,10.30
2016,04,10,01,25,10.30
2016,04,10,01,26,10.30
2016,04,10,01,27,10.30
2016,04,10,01,28,10.30
2016,04,10,01,29,10.30
2016,04,10,01,30,10.30
2016,04,10,01,31,10.30
2016,04,10,01,32,10.30
2016,04,10,01,33,10.30
2016,04,10,01,34,10.40
2016,04,10,01,35,10.40
2016,04,10,01,36,10.40
2016,04,10,01,37,10.40
2016,04,10,01,38,10.40
2016,04,10,01,39,10.40
2016,04,10,01,40,10.40
2016,04,10,01,41,10.40
2016,04,10,01,42,10.40
2016,04,10,01,43,10.40
2016,04,10,01,44,10.40
2016,04,10,01,45,10.40
2016,04,10,01,46,10.40
2016,04,10,01,47,10.40
2016,04,10,01,48,10.40
2016,04,10,01,49,10.40
2016,04,10,01,50,10.40
2016,04,10,01,51,10.40
2016,04,10,01,52,10.40
2016,04,10,01,53,10.40
2016,04,10,01,54,10.40
2016,04,10,01,55,10.40
2016,04,10,01,56,10.30
2016,04,10,01,57,10.30
2016,04,10,01,58,10.30
2016,04,10,01,59,10.30
2016,04,10,02,00,10.30
2016,04,10,02,01,10.30
2016,04,10,02,02,10.30
2016,04,10,02,03,10.30
2016,04,10,02,04,10.30
2016,04,10,02,05,10.30
2016,04,10,02,06,10.30
2016,04,10,02,07,10.30
2016,04,10,02,08,10.20
2016,04,10,02,09,10.30
2016,04,10,02,10,10.20
2016,04,10,02,11,10.20
2016,04,10,02,12,10.20
2016,04,10,02,13,10.20
2016,04,10,02,14,10.20
2016,04,10,02,15,10.20
2016,04,10,02,16,10.20
2016,04,10,02,17,10.20
2016,04,10,02,18,10.20
2016,04,10,02,19,10.20
2016,04,10,02,20,10.20
2016,04,10,02,21,10.20
2016,04,10,02,22,10.20
2016,04,10,02,23,10.10
2016,04,10,02,24,10.10
2016,04,10,02,25,10.10
2016,04,10,02,26,10.10
2016,04,10,02,27,10.10
2016,04,10,02,28,10.10
2016,04,10,02,29,10.00
2016,04,10,02,30,10.00
2016,04,10,02,31,10.00
2016,04,10,02,32,9.90
2016,04,10,02,33,9.90
2016,04,10,02,34,9.90
2016,04,10,02,35,9.80
2016,04,10,02,36,9.80
2016,04,10,02,37,9.80
2016,04,10,02,38,9.80
2016,04,10,02,39,9.70
2016,04,10,02,40,9.70
2016,04,10,02,41,9.70
2016,04,10,02,42,9.60
2016,04,10,02,43,9.60
2016,04,10,02,44,9.60
2016,04,10,02,45,9.60
2016,04,10,02,46,9.50
2016,04,10,02,47,9.50
2016,04,10,02,48,9.40
2016,04,10,02,49,9.40
2016,04,10,02,50,9.40
2016,04,10,02,51,9.30
2016,04,10,02,52,9.30
2016,04,10,02,53,9.30
2016,04,10,02,54,9.30
2016,04,10,02,55,9.20
2016,04,10,02,56,9.20
2016,04,10,02,57,9.10
2016,04,10,02,58,9.10
2016,04,10,02,59,9.10
2016,04,10,03,00,9.10
2016,04,10,03,01,9.10
2016,04,10,03,02,9.00
2016,04,10,03,03,9.00
2016,04,10,03,04,9.00
2016,04,10,03,05,9.00
2016,04,10,03,06,9.00
2016,04,10,03,07,8.90
2016,04,10,03,08,9.00
2016,04,10,03,09,8.90
2016,04,10,03,10,9.00
2016,04,10,03,11,9.00
2016,04,10,03,12,9.00
2016,04,10,03,13,9.00
2016,04,10,03,14,9.00
2016,04,10,03,15,9.00
2016,04,10,03,16,9.00
2016,04,10,03,17,9.00
2016,04,10,03,18,9.00
2016,04,10,03,19,9.00
2016,04,10,03,20,9.00
2016,04,10,03,21,8.90
2016,04,10,03,22,8.90
2016,04,10,03,23,8.90
2016,04,10,03,24,8.90
2016,04,10,03,25,8.90
2016,04,10,03,26,8.90
2016,04,10,03,27,8.80
2016,04,10,03,28,8.80
2016,04,10,03,29,8.80
2016,04,10,03,30,8.80
2016,04,10,03,31,8.80
2016,04,10,03,32,8.80
2016,04,10,03,33,8.80
2016,04,10,03,34,8.80
2016,04,10,03,35,8.80
2016,04,10,03,36,8.80
2016,04,10,03,37,8.80
2016,04,10,03,38,8.80
2016,04,10,03,39,8.80
2016,04,10,03,40,8.80
2016,04,10,03,41,8.80
2016,04,10,03,42,8.80
2016,04,10,03,43,8.80
2016,04,10,03,44,8.70
2016,04,10,03,45,8.70
2016,04,10,03,46,8.80
2016,04,10,03,47,8.70
2016,04,10,03,48,8.80
2016,04,10,03,49,8.80
2016,04,10,03,50,8.80
2016,04,10,03,51,8.80
2016,04,10,03,52,8.80
2016,04,10,03,53,8.70
2016,04,10,03,54,8.70
2016,04,10,03,55,8.70
2016,04,10,03,56,8.70
2016,04,10,03,57,8.70
2016,04,10,03,58,8.70
2016,04,10,03,59,8.70
2016,04,10,04,00,8.70
2016,04,10,04,01,8.70
2016,04,10,04,02,8.70
2016,04,10,04,03,8.70
2016,04,10,04,04,8.70
2016,04,10,04,05,8.70
2016,04,10,04,06,8.60
2016,04,10,04,07,8.60
2016,04,10,04,08,8.60
2016,04,10,04,09,8.60
2016,04,10,04,10,8.60
2016,04,10,04,11,8.60
2016,04,10,04,12,8.60
2016,04,10,04,13,8.60
2016,04,10,04,14,8.60
2016,04,10,04,15,8.60
2016,04,10,04,16,8.60
2016,04,10,04,17,8.60
2016,04,10,04,18,8.60
2016,04,10,04,19,8.60
2016,04,10,04,20,8.60
2016,04,10,04,21,8.60
2016,04,10,04,22,8.60
2016,04,10,04,23,8.60
2016,04,10,04,24,8.60
2016,04,10,04,25,8.60
2016,04,10,04,26,8.60
2016,04,10,04,27,8.60
2016,04,10,04,28,8.60
2016,04,10,04,29,8.60
2016,04,10,04,30,8.60
2016,04,10,04,31,8.60
2016,04,10,04,32,8.60
2016,04,10,04,33,8.60
2016,04,10,04,34,8.60
2016,04,10,04,35,8.60
2016,04,10,04,36,8.60
2016,04,10,04,37,8.60
2016,04,10,04,38,8.60
2016,04,10,04,39,8.60
2016,04,10,04,40,8.60
2016,04,10,04,41,8.60
2016,04,10,04,42,8.60
2016,04,10,04,43,8.60
2016,04,10,04,44,8.50
2016,04,10,04,45,8.50
2016,04,10,04,46,8.50
2016,04,10,04,47,8.50
2016,04,10,04,48,8.40
2016,04,10,04,49,8.40
2016,04,10,04,50,8.40
2016,04,10,04,51,8.40
2016,04,10,04,52,8.40
2016,04,10,04,53,8.40
2016,04,10,04,54,8.40
2016,04,10,04,55,8.30
2016,04,10,04,56,8.30
2016,04,10,04,57,8.30
2016,04,10,04,58,8.30
2016,04,10,04,59,8.30
2016,04,10,05,00,8.20
2016,04,10,05,01,8.20
2016,04,10,05,02,8.20
2016,04,10,05,03,8.20
2016,04,10,05,04,8.20
2016,04,10,05,05,8.20
2016,04,10,05,06,8.20
2016,04,10,05,07,8.10
2016,04,10,05,08,8.10
2016,04,10,05,09,8.10
2016,04,10,05,10,8.10
2016,04,10,05,11,8.10
2016,04,10,05,12,8.10
2016,04,10,05,13,8.10
2016,04,10,05,14,8.10
2016,04,10,05,15,8.10
2016,04,10,05,16,8.10
2016,04,10,05,17,8.10
2016,04,10,05,18,8.10
2016,04,10,05,19,8.10
2016,04,10,05,20,8.10
2016,04,10,05,21,8.00
2016,04,10,05,22,8.00
2016,04,10,05,23,8.00
2016,04,10,05,24,8.00
2016,04,10,05,25,8.00
2016,04,10,05,26,7.90
2016,04,10,05,27,7.90
2016,04,10,05,28,7.90
2016,04,10,05,29,7.90
2016,04,10,05,30,7.90
2016,04,10,05,31,7.80
2016,04,10,05,32,7.80
2016,04,10,05,33,7.80
2016,04,10,05,34,7.80
2016,04,10,05,35,7.80
2016,04,10,05,36,7.80
2016,04,10,05,37,7.70
2016,04,10,05,38,7.70
2016,04,10,05,39,7.70
2016,04,10,05,40,7.70
2016,04,10,05,41,7.70
2016,04,10,05,42,7.60
2016,04,10,05,43,7.60
2016,04,10,05,44,7.60
2016,04,10,05,45,7.60
2016,04,10,05,46,7.60
2016,04,10,05,47,7.60
2016,04,10,05,48,7.50
2016,04,10,05,49,7.50
2016,04,10,05,50,7.50
2016,04,10,05,51,7.50
2016,04,10,05,52,7.50
2016,04,10,05,53,7.50
2016,04,10,05,54,7.40
2016,04,10,05,55,7.40
2016,04,10,05,56,7.50
2016,04,10,05,57,7.40
2016,04,10,05,58,7.40
2016,04,10,05,59,7.40
2016,04,10,06,00,7.40
2016,04,10,06,01,7.40
2016,04,10,06,02,7.40
2016,04,10,06,03,7.40
2016,04,10,06,04,7.50
2016,04,10,06,05,7.50
2016,04,10,06,06,7.50
2016,04,10,06,07,7.50
2016,04,10,06,08,7.50
2016,04,10,06,09,7.50
2016,04,10,06,10,7.40
2016,04,10,06,11,7.40
2016,04,10,06,12,7.40
2016,04,10,06,13,7.40
2016,04,10,06,14,7.40
2016,04,10,06,15,7.30
2016,04,10,06,16,7.30
2016,04,10,06,17,7.30
2016,04,10,06,18,7.30
2016,04,10,06,19,7.20
2016,04,10,06,20,7.20
2016,04,10,06,21,7.20
2016,04,10,06,22,7.20
2016,04,10,06,23,7.20
2016,04,10,06,24,7.20
2016,04,10,06,25,7.20
2016,04,10,06,26,7.20
2016,04,10,06,27,7.20
2016,04,10,06,28,7.20
2016,04,10,06,29,7.20
2016,04,10,06,30,7.20
2016,04,10,06,31,7.20
2016,04,10,06,32,7.20
2016,04,10,06,33,7.30
2016,04,10,06,34,7.30
2016,04,10,06,35,7.30
2016,04,10,06,36,7.30
2016,04,10,06,37,7.30
2016,04,10,06,38,7.30
2016,04,10,06,39,7.40
2016,04,10,06,40,7.40
2016,04,10,06,41,7.40
2016,04,10,06,42,7.50
2016,04,10,06,43,7.50
2016,04,10,06,44,7.60
2016,04,10,06,45,7.60
2016,04,10,06,46,7.60
2016,04,10,06,47,7.60
2016,04,10,06,48,7.70
2016,04,10,06,49,7.70
2016,04,10,06,50,7.70
2016,04,10,06,51,7.70
2016,04,10,06,52,7.70
2016,04,10,06,53,7.70
2016,04,10,06,54,7.80
2016,04,10,06,55,7.80
2016,04,10,06,56,7.80
2016,04,10,06,57,7.80
2016,04,10,06,58,7.80
2016,04,10,06,59,7.80
2016,04,10,07,00,7.80
2016,04,10,07,01,7.80
2016,04,10,07,02,7.80
2016,04,10,07,03,7.90
2016,04,10,07,04,7.90
2016,04,10,07,05,7.90
2016,04,10,07,06,7.90
2016,04,10,07,07,7.90
2016,04,10,07,08,7.90
2016,04,10,07,09,7.90
2016,04,10,07,10,7.90
2016,04,10,07,11,8.00
2016,04,10,07,12,8.00
2016,04,10,07,13,8.00
2016,04,10,07,14,8.00
2016,04,10,07,15,8.10
2016,04,10,07,16,8.10
2016,04,10,07,17,8.10
2016,04,10,07,18,8.10
2016,04,10,07,19,8.10
2016,04,10,07,20,8.10
2016,04,10,07,21,8.10
2016,04,10,07,22,8.10
2016,04,10,07,23,8.10
2016,04,10,07,24,8.10
2016,04,10,07,25,8.10
2016,04,10,07,26,8.10
2016,04,10,07,27,8.10
2016,04,10,07,28,8.00
2016,04,10,07,29,8.00
2016,04,10,07,30,7.90
2016,04,10,07,31,7.90
2016,04,10,07,32,7.90
2016,04,10,07,33,7.90
2016,04,10,07,34,7.90
2016,04,10,07,35,7.80
2016,04,10,07,36,7.80
2016,04,10,07,37,7.80
2016,04,10,07,38,7.80
2016,04,10,07,39,7.80
2016,04,10,07,40,7.70
2016,04,10,07,41,7.70
2016,04,10,07,42,7.70
2016,04,10,07,43,7.70
2016,04,10,07,44,7.70
2016,04,10,07,45,7.70
2016,04,10,07,46,7.70
2016,04,10,07,47,7.70
2016,04,10,07,48,7.80
2016,04,10,07,49,7.80
2016,04,10,07,50,7.80
2016,04,10,07,51,7.80
2016,04,10,07,52,7.80
2016,04,10,07,53,7.80
2016,04,10,07,54,7.80
2016,04,10,07,55,7.80
2016,04,10,07,56,7.80
2016,04,10,07,57,7.80
2016,04,10,07,58,7.80
2016,04,10,07,59,7.80
2016,04,10,08,00,7.80
2016,04,10,08,01,7.90
2016,04,10,08,02,7.90
2016,04,10,08,03,7.90
2016,04,10,08,04,8.00
2016,04,10,08,05,8.00
2016,04,10,08,06,8.10
2016,04,10,08,07,8.10
2016,04,10,08,08,8.10
2016,04,10,08,09,8.10
2016,04,10,08,10,8.20
2016,04,10,08,11,8.20
2016,04,10,08,12,8.20
2016,04,10,08,13,8.20
2016,04,10,08,14,8.20
2016,04,10,08,15,8.20
2016,04,10,08,16,8.20
2016,04,10,08,17,8.20
2016,04,10,08,18,8.20
2016,04,10,08,19,8.20
2016,04,10,08,20,8.20
2016,04,10,08,21,8.20
2016,04,10,08,22,8.20
2016,04,10,08,23,8.20
2016,04,10,08,24,8.20
2016,04,10,08,25,8.20
2016,04,10,08,26,8.20
2016,04,10,08,27,8.20
2016,04,10,08,28,8.20
2016,04,10,08,29,8.20
2016,04,10,08,30,8.20
2016,04,10,08,31,8.20
2016,04,10,08,32,8.20
2016,04,10,08,33,8.20
2016,04,10,08,34,8.20
2016,04,10,08,35,8.20
2016,04,10,08,36,8.20
2016,04,10,08,37,8.20
2016,04,10,08,38,8.20
2016,04,10,08,39,8.20
2016,04,10,08,40,8.10
2016,04,10,08,41,8.10
2016,04,10,08,42,8.10
2016,04,10,08,43,8.10
2016,04,10,08,44,8.10
2016,04,10,08,45,8.10
2016,04,10,08,46,8.10
2016,04,10,08,47,8.10
2016,04,10,08,48,8.10
2016,04,10,08,49,8.10
2016,04,10,08,50,8.10
2016,04,10,08,51,8.10
2016,04,10,08,52,8.10
2016,04,10,08,53,8.20
2016,04,10,08,54,8.20
2016,04,10,08,55,8.20
2016,04,10,08,56,8.30
2016,04,10,08,57,8.30
2016,04,10,08,58,8.30
2016,04,10,08,59,8.40
2016,04,10,09,00,8.40
2016,04,10,09,01,8.40
2016,04,10,09,02,8.40
2016,04,10,09,03,8.40
2016,04,10,09,04,8.40
2016,04,10,09,05,8.50
2016,04,10,09,06,8.60
2016,04,10,09,07,8.60
2016,04,10,09,08,8.60
2016,04,10,09,09,8.60
2016,04,10,09,10,8.60
2016,04,10,09,11,8.60
2016,04,10,09,12,8.60
2016,04,10,09,13,8.60
2016,04,10,09,14,8.60
2016,04,10,09,15,8.60
2016,04,10,09,16,8.60
2016,04,10,09,17,8.70
2016,04,10,09,18,8.70
2016,04,10,09,19,8.70
2016,04,10,09,20,8.70
2016,04,10,09,21,8.70
2016,04,10,09,22,8.70
2016,04,10,09,23,8.80
2016,04,10,09,24,8.80
2016,04,10,09,25,8.80
2016,04,10,09,26,8.90
2016,04,10,09,27,8.90
2016,04,10,09,28,8.90
2016,04,10,09,29,9.00
2016,04,10,09,30,9.00
2016,04,10,09,31,9.10
2016,04,10,09,32,9.10
2016,04,10,09,33,9.10
2016,04,10,09,34,9.20
2016,04,10,09,35,9.20
2016,04,10,09,36,9.20
2016,04,10,09,37,9.20
2016,04,10,09,38,9.20
2016,04,10,09,39,9.20
2016,04,10,09,40,9.20
2016,04,10,09,41,9.20
2016,04,10,09,42,9.30
2016,04,10,09,43,9.30
2016,04,10,09,44,9.30
2016,04,10,09,45,9.30
2016,04,10,09,46,9.30
2016,04,10,09,47,9.30
2016,04,10,09,48,9.30
2016,04,10,09,49,9.40
2016,04,10,09,50,9.40
2016,04,10,09,51,9.40
2016,04,10,09,52,9.30
2016,04,10,09,53,9.30
2016,04,10,09,54,9.30
2016,04,10,09,55,9.30
2016,04,10,09,56,9.30
2016,04,10,09,57,9.30
2016,04,10,09,58,9.30
2016,04,10,09,59,9.30
2016,04,10,10,00,9.30
2016,04,10,10,01,9.30
2016,04,10,10,02,9.30
2016,04,10,10,03,9.30
2016,04,10,10,04,9.30
2016,04,10,10,05,9.30
2016,04,10,10,06,9.30
2016,04,10,10,07,9.30
2016,04,10,10,08,9.40
2016,04,10,10,09,9.40
2016,04,10,10,10,9.40
2016,04,10,10,11,9.40
2016,04,10,10,12,9.40
2016,04,10,10,13,9.50
2016,04,10,10,14,9.50
2016,04,10,10,15,9.60
2016,04,10,10,16,9.60
2016,04,10,10,17,9.70
2016,04,10,10,18,9.70
2016,04,10,10,19,9.70
2016,04,10,10,20,9.70
2016,04,10,10,21,9.80
2016,04,10,10,22,9.80
2016,04,10,10,23,9.80
2016,04,10,10,24,9.80
2016,04,10,10,25,9.80
2016,04,10,10,26,9.80
2016,04,10,10,27,9.80
2016,04,10,10,28,9.80
2016,04,10,10,29,9.90
2016,04,10,10,30,9.90
2016,04,10,10,31,9.90
2016,04,10,10,32,9.90
2016,04,10,10,33,9.90
2016,04,10,10,34,9.90
2016,04,10,10,35,10.00
2016,04,10,10,36,10.00
2016,04,10,10,37,10.00
2016,04,10,10,38,10.00
2016,04,10,10,39,10.00
2016,04,10,10,40,10.00
2016,04,10,10,41,10.10
2016,04,10,10,42,10.10
2016,04,10,10,43,10.10
2016,04,10,10,44,10.00
2016,04,10,10,45,10.10
2016,04,10,10,46,10.10
2016,04,10,10,47,10.10
2016,04,10,10,48,10.10
2016,04,10,10,49,10.00
2016,04,10,10,50,10.00
2016,04,10,10,51,10.00
2016,04,10,10,52,10.00
2016,04,10,10,53,10.10
2016,04,10,10,54,10.10
2016,04,10,10,55,10.20
2016,04,10,10,56,10.20
2016,04,10,10,57,10.20
2016,04,10,10,58,10.20
2016,04,10,10,59,10.20
2016,04,10,11,00,10.20
2016,04,10,11,01,10.20
2016,04,10,11,02,10.20
2016,04,10,11,03,10.20
2016,04,10,11,04,10.20
2016,04,10,11,05,10.20
2016,04,10,11,06,10.30
2016,04,10,11,07,10.30
2016,04,10,11,08,10.30
2016,04,10,11,09,10.30
2016,04,10,11,10,10.30
2016,04,10,11,11,10.30
2016,04,10,11,12,10.30
2016,04,10,11,13,10.30
2016,04,10,11,14,10.30
2016,04,10,11,15,10.30
2016,04,10,11,16,10.40
2016,04,10,11,17,10.40
2016,04,10,11,18,10.40
2016,04,10,11,19,10.50
2016,04,10,11,20,10.50
2016,04,10,11,21,10.50
2016,04,10,11,22,10.50
2016,04,10,11,23,10.60
2016,04,10,11,24,10.60
2016,04,10,11,25,10.60
2016,04,10,11,26,10.70
2016,04,10,11,27,10.80
2016,04,10,11,28,10.90
2016,04,10,11,29,10.90
2016,04,10,11,30,11.00
2016,04,10,11,31,11.00
2016,04,10,11,32,11.10
2016,04,10,11,33,11.10
2016,04,10,11,34,11.10
2016,04,10,11,35,11.20
2016,04,10,11,36,11.20
2016,04,10,11,37,11.20
2016,04,10,11,38,11.20
2016,04,10,11,39,11.20
2016,04,10,11,40,11.20
2016,04,10,11,41,11.10
2016,04,10,11,42,11.00
2016,04,10,11,43,11.00
2016,04,10,11,44,10.90
2016,04,10,11,45,10.80
2016,04,10,11,46,10.70
2016,04,10,11,47,10.60
2016,04,10,11,48,10.60
2016,04,10,11,49,10.50
2016,04,10,11,50,10.40
2016,04,10,11,51,10.30
2016,04,10,11,52,10.20
2016,04,10,11,53,10.20
2016,04,10,11,54,10.20
2016,04,10,11,55,10.10
2016,04,10,11,56,10.10
2016,04,10,11,57,10.20
2016,04,10,11,58,10.20
2016,04,10,11,59,10.20
2016,04,10,12,00,10.20
2016,04,10,12,01,10.20
2016,04,10,12,02,10.20
2016,04,10,12,03,10.20
2016,04,10,12,04,10.10
2016,04,10,12,05,10.10
2016,04,10,12,06,10.20
2016,04,10,12,07,10.20
2016,04,10,12,08,10.10
2016,04,10,12,09,10.10
2016,04,10,12,10,10.20
2016,04,10,12,11,10.20
2016,04,10,12,12,10.20
2016,04,10,12,13,10.30
2016,04,10,12,14,10.30
2016,04,10,12,15,10.30
2016,04,10,12,16,10.30
2016,04,10,12,17,10.40
2016,04,10,12,18,10.40
2016,04,10,12,19,10.40
2016,04,10,12,20,10.50
2016,04,10,12,21,10.50
2016,04,10,12,22,10.50
2016,04,10,12,23,10.40
2016,04,10,12,24,10.40
2016,04,10,12,25,10.40
2016,04,10,12,26,10.40
2016,04,10,12,27,10.40
2016,04,10,12,28,10.40
2016,04,10,12,29,10.40
2016,04,10,12,30,10.40
2016,04,10,12,31,10.50
2016,04,10,12,32,10.50
2016,04,10,12,33,10.50
2016,04,10,12,34,10.50
2016,04,10,12,35,10.50
2016,04,10,12,36,10.50
2016,04,10,12,37,10.50
2016,04,10,12,38,10.40
2016,04,10,12,39,10.50
2016,04,10,12,40,10.40
2016,04,10,12,41,10.40
2016,04,10,12,42,10.40
2016,04,10,12,43,10.40
2016,04,10,12,44,10.40
2016,04,10,12,45,10.40
2016,04,10,12,46,10.40
2016,04,10,12,47,10.40
2016,04,10,12,48,10.40
2016,04,10,12,49,10.40
2016,04,10,12,50,10.40
2016,04,10,12,51,10.40
2016,04,10,12,52,10.40
2016,04,10,12,53,10.40
2016,04,10,12,54,10.40
2016,04,10,12,55,10.40
2016,04,10,12,56,10.50
2016,04,10,12,57,10.50
2016,04,10,12,58,10.50
2016,04,10,12,59,10.50
2016,04,10,13,00,10.50
2016,04,10,13,01,10.50
2016,04,10,13,02,10.50
2016,04,10,13,03,10.40
2016,04,10,13,04,10.40
2016,04,10,13,05,10.50
2016,04,10,13,06,10.50
2016,04,10,13,07,10.50
2016,04,10,13,08,10.50
2016,04,10,13,09,10.50
2016,04,10,13,10,10.60
2016,04,10,13,11,10.70
2016,04,10,13,12,10.80
2016,04,10,13,13,10.80
2016,04,10,13,14,10.90
2016,04,10,13,15,11.00
2016,04,10,13,16,11.10
2016,04,10,13,17,11.30
2016,04,10,13,18,11.40
2016,04,10,13,19,11.50
2016,04,10,13,20,11.70
2016,04,10,13,21,11.80
2016,04,10,13,22,11.80
2016,04,10,13,23,11.80
2016,04,10,13,24,11.80
2016,04,10,13,25,11.80
2016,04,10,13,26,11.90
2016,04,10,13,27,11.90
2016,04,10,13,28,11.90
2016,04,10,13,29,12.00
2016,04,10,13,30,12.00
2016,04,10,13,31,12.10
2016,04,10,13,32,12.10
2016,04,10,13,33,12.10
2016,04,10,13,34,12.20
2016,04,10,13,35,12.20
2016,04,10,13,36,12.30
2016,04,10,13,37,12.30
2016,04,10,13,38,12.40
2016,04,10,13,39,12.60
2016,04,10,13,40,12.80
2016,04,10,13,41,12.90
2016,04,10,13,42,13.00
2016,04,10,13,43,13.20
2016,04,10,13,44,13.30
2016,04,10,13,45,13.40
2016,04,10,13,46,13.60
2016,04,10,13,47,13.70
2016,04,10,13,48,13.70
2016,04,10,13,49,13.70
2016,04,10,13,50,13.80
2016,04,10,13,51,13.80
2016,04,10,13,52,13.90
2016,04,10,13,53,13.90
2016,04,10,13,54,13.90
2016,04,10,13,55,13.90
2016,04,10,13,56,13.90
2016,04,10,13,57,13.90
2016,04,10,13,58,13.90
2016,04,10,13,59,13.80
2016,04,10,14,00,13.80
2016,04,10,14,01,13.80
2016,04,10,14,02,13.80
2016,04,10,14,03,13.90
2016,04,10,14,04,14.00
2016,04,10,14,05,14.10
2016,04,10,14,06,14.20
2016,04,10,14,07,14.30
2016,04,10,14,08,14.30
2016,04,10,14,09,14.40
2016,04,10,14,10,14.50
2016,04,10,14,11,14.50
2016,04,10,14,12,14.60
2016,04,10,14,13,14.60
2016,04,10,14,14,14.60
2016,04,10,14,15,14.60
2016,04,10,14,16,14.60
2016,04,10,14,17,14.60
2016,04,10,14,18,14.60
2016,04,10,14,19,14.60
2016,04,10,14,20,14.60
2016,04,10,14,21,14.50
2016,04,10,14,22,14.50
2016,04,10,14,23,14.40
2016,04,10,14,24,14.40
2016,04,10,14,25,14.30
2016,04,10,14,26,14.30
2016,04,10,14,27,14.20
2016,04,10,14,28,14.20
2016,04,10,14,29,14.20
2016,04,10,14,30,14.20
2016,04,10,14,31,14.10
2016,04,10,14,32,14.20
2016,04,10,14,33,14.20
2016,04,10,14,34,14.20
2016,04,10,14,35,14.20
2016,04,10,14,36,14.20
2016,04,10,14,37,14.20
2016,04,10,14,38,14.20
2016,04,10,14,39,14.20
2016,04,10,14,40,14.30
2016,04,10,14,41,14.30
2016,04,10,14,42,14.20
2016,04,10,14,43,14.30
2016,04,10,14,44,14.30
2016,04,10,14,45,14.30
2016,04,10,14,46,14.30
2016,04,10,14,47,14.30
2016,04,10,14,48,14.30
2016,04,10,14,49,14.30
2016,04,10,14,50,14.30
2016,04,10,14,51,14.30
2016,04,10,14,52,14.30
2016,04,10,14,53,14.30
2016,04,10,14,54,14.40
2016,04,10,14,55,14.50
2016,04,10,14,56,14.60
2016,04,10,14,57,14.70
2016,04,10,14,58,14.70
2016,04,10,14,59,14.60
2016,04,10,15,00,14.60
2016,04,10,15,01,14.60
2016,04,10,15,02,14.60
2016,04,10,15,03,14.60
2016,04,10,15,04,14.70
2016,04,10,15,05,14.70
2016,04,10,15,06,14.70
2016,04,10,15,07,14.70
2016,04,10,15,08,14.80
2016,04,10,15,09,14.80
2016,04,10,15,10,14.80
2016,04,10,15,11,14.80
2016,04,10,15,12,14.80
2016,04,10,15,13,14.80
2016,04,10,15,14,14.80
2016,04,10,15,15,14.80
2016,04,10,15,16,14.80
2016,04,10,15,17,14.80
2016,04,10,15,18,14.70
2016,04,10,15,19,14.70
2016,04,10,15,20,14.60
2016,04,10,15,21,14.50
2016,04,10,15,22,14.40
2016,04,10,15,23,14.40
2016,04,10,15,24,14.30
2016,04,10,15,25,14.30
2016,04,10,15,26,14.40
2016,04,10,15,27,14.40
2016,04,10,15,28,14.40
2016,04,10,15,29,14.50
2016,04,10,15,30,14.50
2016,04,10,15,31,14.50
2016,04,10,15,32,14.40
2016,04,10,15,33,14.40
2016,04,10,15,34,14.40
2016,04,10,15,35,14.30
2016,04,10,15,36,14.30
2016,04,10,15,37,14.10
2016,04,10,15,38,13.90
2016,04,10,15,39,13.80
2016,04,10,15,40,13.80
2016,04,10,15,41,13.80
2016,04,10,15,42,13.80
2016,04,10,15,43,13.70
2016,04,10,15,44,13.70
2016,04,10,15,45,13.70
2016,04,10,15,46,13.70
2016,04,10,15,47,13.70
2016,04,10,15,48,13.70
2016,04,10,15,49,13.80
2016,04,10,15,50,13.90
2016,04,10,15,51,13.90
2016,04,10,15,52,13.90
2016,04,10,15,53,14.00
2016,04,10,15,54,13.90
2016,04,10,15,55,13.90
2016,04,10,15,56,13.80
2016,04,10,15,57,13.90
2016,04,10,15,58,13.90
2016,04,10,15,59,13.90
2016,04,10,16,00,13.90
2016,04,10,16,01,13.90
2016,04,10,16,02,13.90
2016,04,10,16,03,13.90
2016,04,10,16,04,13.80
2016,04,10,16,05,13.80
2016,04,10,16,06,13.80
2016,04,10,16,07,13.80
2016,04,10,16,08,13.80
2016,04,10,16,09,13.80
2016,04,10,16,10,13.90
2016,04,10,16,11,13.90
2016,04,10,16,12,13.90
2016,04,10,16,13,14.00
2016,04,10,16,14,14.00
2016,04,10,16,15,14.10
2016,04,10,16,16,14.10
2016,04,10,16,17,14.10
2016,04,10,16,18,14.10
2016,04,10,16,19,14.00
2016,04,10,16,20,14.00
2016,04,10,16,21,13.90
2016,04,10,16,22,13.90
2016,04,10,16,23,13.90
2016,04,10,16,24,13.90
2016,04,10,16,25,13.90
2016,04,10,16,26,14.00
2016,04,10,16,27,14.10
2016,04,10,16,28,14.20
2016,04,10,16,29,14.20
2016,04,10,16,30,14.20
2016,04,10,16,31,14.20
2016,04,10,16,32,14.20
2016,04,10,16,33,14.20
2016,04,10,16,34,14.20
2016,04,10,16,35,14.10
2016,04,10,16,36,14.00
2016,04,10,16,37,13.90
2016,04,10,16,38,13.90
2016,04,10,16,39,13.80
2016,04,10,16,40,13.80
2016,04,10,16,41,13.80
2016,04,10,16,42,13.80
2016,04,10,16,43,13.90
2016,04,10,16,44,13.90
2016,04,10,16,45,13.90
2016,04,10,16,46,14.00
2016,04,10,16,47,14.00
2016,04,10,16,48,14.00
2016,04,10,16,49,14.00
2016,04,10,16,50,14.00
2016,04,10,16,51,14.10
2016,04,10,16,52,14.10
2016,04,10,16,53,14.20
2016,04,10,16,54,14.20
2016,04,10,16,55,14.20
2016,04,10,16,56,14.20
2016,04,10,16,57,14.20
2016,04,10,16,58,14.20
2016,04,10,16,59,14.20
2016,04,10,17,00,14.30
2016,04,10,17,01,14.30
2016,04,10,17,02,14.30
2016,04,10,17,03,14.20
2016,04,10,17,04,14.20
2016,04,10,17,05,14.20
2016,04,10,17,06,14.10
2016,04,10,17,07,14.00
2016,04,10,17,08,13.90
2016,04,10,17,09,13.90
2016,04,10,17,10,13.90
2016,04,10,17,11,13.90
2016,04,10,17,12,13.80
2016,04,10,17,13,13.80
2016,04,10,17,14,13.80
2016,04,10,17,15,13.80
2016,04,10,17,16,13.90
2016,04,10,17,17,13.90
2016,04,10,17,18,13.90
2016,04,10,17,19,13.90
2016,04,10,17,20,13.90
2016,04,10,17,21,13.80
2016,04,10,17,22,13.80
2016,04,10,17,23,13.80
2016,04,10,17,24,13.70
2016,04,10,17,25,13.60
2016,04,10,17,26,13.50
2016,04,10,17,27,13.40
2016,04,10,17,28,13.30
2016,04,10,17,29,13.30
2016,04,10,17,30,13.30
2016,04,10,17,31,13.30
2016,04,10,17,32,13.30
2016,04,10,17,33,13.20
2016,04,10,17,34,13.20
2016,04,10,17,35,13.20
2016,04,10,17,36,13.30
2016,04,10,17,37,13.30
2016,04,10,17,38,13.30
2016,04,10,17,39,13.30
2016,04,10,17,40,13.30